Casper, WY

3:16 AM MST on December 13, 2017 (GMT -0700)
Natrona County International

Weather History for KCPR - September, 2013

Change the Weather History Date:

Thursday, September 12, 2013

  Actual Average Record
Temperature  
Mean Temperature 59 °F 60 °F  
Max Temperature 66 °F 76 °F 94 °F (1990)
Min Temperature 52 °F 43 °F 25 °F (2014)
Degree Days  
Heating Degree Days 6 6  
Month to date heating degree days 16 54  
Since 1 July heating degree days 16 100  
Cooling Degree Days 0 1  
Month to date cooling degree days 74 19  
Year to date cooling degree days 612 416  
Growing Degree Days 10 (Base 50)    
Moisture  
Dew Point 53 °F    
Average Humidity 75    
Maximum Humidity 89    
Minimum Humidity 60    
Precipitation  
Precipitation 0.06 in 0.03 in 0.29 in (1957)
Month to date precipitation 0.15 0.37  
Year to date precipitation 9.35 9.45  
Snow  
Snow 0.00 in 0.00 in - ()
Month to date snowfall 0.0 0.2  
Since 1 July snowfall 0.0 0.2  
Since 1 September snowfall 0.0 0.2  
Snow Depth 0.00 in    
Sea Level Pressure  
Sea Level Pressure 30.18 in    
Wind  
Wind Speed 7 mph (ENE)    
Max Wind Speed 22 mph    
Max Gust Speed 26 mph    
Visibility 10 miles    
Events Rain    
T = Trace of Precipitation, MM = Missing Value Source: NWS Daily Summary

Daily Weather History Graph

Daily Weather History Graph

Search for Another Location

Airport or City:

Trip Planner

Search our weather history database for the weather conditions in past years. The results will help you decide how hot, cold, wet, or windy it might be!

Date:

Astronomy

Sep. 12, 2013 Rise Set
Actual Time 6:42 AM MDT 7:20 PM MDT
Civil Twilight 6:14 AM MDT 7:49 PM MDT
Nautical Twilight 5:40 AM MDT 8:22 PM MDT
Astronomical Twilight 5:05 AM MDT 8:57 PM MDT
Moon 2:22 PM MDT (9/12) No Moon Set
Length of Visible Light 13h 35m
Length of Day
12h 37m
Waxing Crescent, 51% of the Moon is Illuminated
Sep 12
Waxing Crescent
Sep 19
Full
Sep 26
Last Quarter
Oct 4
New
Oct 11
First Quarter

Hourly Weather History & Observations

Time (MDT) Temp. Dew Point Humidity Pressure Visibility Wind Dir Wind Speed Gust Speed Precip Events Conditions
12:53 AM 51.1 °F 48.0 °F 89% 30.21 in 10.0 mi WSW 4.6 mph - N/A   Clear
1:53 AM 53.1 °F 50.0 °F 89% 30.21 in 10.0 mi Calm Calm - N/A   Overcast
2:53 AM 54.0 °F 50.0 °F 86% 30.22 in 10.0 mi Calm Calm - N/A   Overcast
3:53 AM 55.9 °F 52.0 °F 87% 30.21 in 10.0 mi Calm Calm - 0.00 in Rain Light Rain
4:53 AM 55.0 °F 53.1 °F 93% 30.22 in 10.0 mi Calm Calm - 0.00 in   Overcast
5:53 AM 55.9 °F 53.1 °F 90% 30.22 in 9.0 mi Calm Calm - 0.00 in Rain Light Rain
6:53 AM 55.9 °F 53.1 °F 90% 30.22 in 10.0 mi NE 3.5 mph - 0.00 in   Overcast
7:53 AM 57.0 °F 54.0 °F 89% 30.22 in 10.0 mi ENE 3.5 mph - N/A   Overcast
8:53 AM 57.9 °F 54.0 °F 87% 30.22 in 10.0 mi ENE 6.9 mph - 0.00 in Rain Light Rain
9:53 AM 59.0 °F 53.1 °F 81% 30.25 in 6.0 mi East 9.2 mph - 0.01 in Rain Light Rain
10:53 AM 59.0 °F 55.0 °F 87% 30.25 in 6.0 mi ENE 9.2 mph - 0.02 in Rain Light Rain
11:53 AM 60.1 °F 55.9 °F 86% 30.24 in 8.0 mi ENE 8.1 mph - 0.01 in Rain Light Rain
12:53 PM 61.0 °F 54.0 °F 78% 30.25 in 10.0 mi East 13.8 mph - 0.01 in   Overcast
1:53 PM 61.0 °F 55.0 °F 81% 30.23 in 10.0 mi East 16.1 mph - 0.00 in   Overcast
2:53 PM 62.1 °F 55.9 °F 80% 30.19 in 10.0 mi East 19.6 mph - 0.01 in Rain Light Rain
3:53 PM 61.0 °F 53.1 °F 75% 30.16 in 10.0 mi East 16.1 mph 21.9 mph 0.00 in Rain Light Rain
4:53 PM 63.0 °F 53.1 °F 70% 30.14 in 10.0 mi ENE 12.7 mph - 0.00 in   Overcast
5:53 PM 66.0 °F 54.0 °F 65% 30.12 in 10.0 mi East 17.3 mph 26.5 mph N/A   Scattered Clouds
6:53 PM 64.0 °F 52.0 °F 65% 30.12 in 10.0 mi East 13.8 mph - N/A   Overcast
7:53 PM 62.1 °F 48.9 °F 62% 30.12 in 10.0 mi East 6.9 mph - N/A   Mostly Cloudy
8:53 PM 60.1 °F 48.9 °F 67% 30.12 in 10.0 mi East 5.8 mph - N/A   Scattered Clouds
9:53 PM 55.9 °F 50.0 °F 80% 30.12 in 10.0 mi Calm Calm - N/A   Mostly Cloudy
10:53 PM 55.0 °F 51.1 °F 86% 30.12 in 10.0 mi Calm Calm - N/A   Scattered Clouds
11:53 PM 57.0 °F 52.0 °F 83% 30.09 in 10.0 mi NNW 3.5 mph - 0.00 in Rain Light Rain